| time (UTC) | temp F | wind direction | speed MPH | gust MPH | rain 1hr in | rain 24hr in | rain mn in | humidity % | barometer mb |
| 20260905125017 | 75 | 293 | 4.0 | 9.0 | 0.00 | 0.00 | 0.00 | 65 | 1011.0 |
| 20260905124517 | 75 | 315 | 4.0 | 8.0 | 0.00 | 0.00 | 0.00 | 65 | 1011.0 |
| 20260905124017 | 75 | 0 | 2.0 | 8.0 | 0.00 | 0.00 | 0.00 | 66 | 1011.0 |
| 20260905123536 | 74 | 315 | 2.0 | 8.0 | 0.00 | 0.00 | 0.00 | 67 | 1011.0 |
| 20260905123016 | 74 | 315 | 3.0 | 8.0 | 0.00 | 0.00 | 0.00 | 67 | 1011.2 |
| 20260905122536 | 74 | 315 | 4.0 | 9.0 | 0.00 | 0.00 | 0.00 | 67 | 1011.2 |
| 20260905122037 | 74 | 315 | 4.0 | 10.0 | 0.00 | 0.00 | 0.00 | 67 | 1011.3 |
| 20260905121515 | 74 | 315 | 3.0 | 8.0 | 0.00 | 0.00 | 0.00 | 67 | 1011.2 |
| 20260905121016 | 73 | 315 | 3.0 | 6.0 | 0.00 | 0.00 | 0.00 | 68 | 1011.0 |
| 20260905120515 | 73 | 315 | 4.0 | 8.0 | 0.00 | 0.00 | 0.00 | 68 | 1011.2 |
| 20260905120036 | 73 | 315 | 3.0 | 8.0 | 0.00 | 0.00 | 0.00 | 68 | 1011.1 |
| 20260905115516 | 73 | 315 | 2.0 | 6.0 | 0.00 | 0.00 | 0.00 | 68 | 1011.1 |
| 20260905115017 | 73 | 315 | 3.0 | 6.0 | 0.00 | 0.00 | 0.00 | 68 | 1011.1 |
| 20260905114517 | 73 | 338 | 2.0 | 5.0 | 0.00 | 0.00 | 0.00 | 68 | 1011.0 |
| 20260905114017 | 73 | 338 | 2.0 | 5.0 | 0.00 | 0.00 | 0.00 | 68 | 1010.9 |
| 20260905113516 | 73 | 315 | 3.0 | 8.0 | 0.00 | 0.00 | 0.00 | 68 | 1010.9 |
| 20260905113016 | 73 | 315 | 3.0 | 8.0 | 0.00 | 0.00 | 0.00 | 68 | 1010.9 |
| 20260905112515 | 72 | 338 | 2.0 | 7.0 | 0.00 | 0.00 | 0.00 | 68 | 1010.8 |
| 20260905112015 | 72 | 338 | 1.0 | 4.0 | 0.00 | 0.00 | 0.00 | 68 | 1010.7 |
| 20260905111516 | 72 | 23 | 1.0 | 5.0 | 0.00 | 0.00 | 0.00 | 68 | 1010.7 |
| 20260905111015 | 72 | 0 | 3.0 | 8.0 | 0.00 | 0.00 | 0.00 | 68 | 1010.7 |
| 20260905110517 | 72 | 338 | 2.0 | 6.0 | 0.00 | 0.00 | 0.00 | 68 | 1010.5 |
| 20260905110036 | 72 | 293 | 1.0 | 4.0 | 0.00 | 0.00 | 0.00 | 68 | 1010.4 |
| 20260905105515 | 72 | 0 | 2.0 | 5.0 | 0.00 | 0.00 | 0.00 | 67 | 1010.4 |
| 20260905105015 | 72 | 0 | 2.0 | 4.0 | 0.00 | 0.00 | 0.00 | 67 | 1010.3 |
| 20260905104517 | 72 | 315 | 3.0 | 6.0 | 0.00 | 0.00 | 0.00 | 67 | 1010.2 |
| 20260905104057 | 72 | 315 | 2.0 | 4.0 | 0.00 | 0.00 | 0.00 | 67 | 1010.3 |
| 20260905103517 | 72 | 338 | 1.0 | 3.0 | 0.00 | 0.00 | 0.00 | 66 | 1010.3 |
| 20260905103016 | 72 | 338 | 2.0 | 5.0 | 0.00 | 0.00 | 0.00 | 66 | 1010.2 |
| 20260905102516 | 73 | 338 | 2.0 | 8.0 | 0.00 | 0.00 | 0.00 | 66 | 1010.1 |
| 20260905102035 | 73 | 0 | 2.0 | 4.0 | 0.00 | 0.00 | 0.00 | 66 | 1010.0 |
| 20260905101516 | 73 | 0 | 1.0 | 4.0 | 0.00 | 0.00 | 0.00 | 66 | 1010.1 |
| 20260905101015 | 73 | 0 | 1.0 | 4.0 | 0.00 | 0.00 | 0.00 | 66 | 1010.0 |
| 20260905100515 | 73 | 0 | 2.0 | 8.0 | 0.00 | 0.00 | 0.00 | 65 | 1010.0 |
| 20260905100015 | 73 | 338 | 2.0 | 6.0 | 0.00 | 0.00 | 0.00 | 65 | 1010.1 |
| 20260905095516 | 73 | 0 | 3.0 | 8.0 | 0.00 | 0.00 | 0.00 | 65 | 1010.1 |
| 20260905095015 | 74 | 338 | 2.0 | 5.0 | 0.00 | 0.00 | 0.00 | 64 | 1010.1 |
| 20260905094515 | 74 | 338 | 2.0 | 4.0 | 0.00 | 0.00 | 0.00 | 65 | 1010.1 |
| 20260905094016 | 74 | 338 | 2.0 | 5.0 | 0.00 | 0.00 | 0.00 | 65 | 1010.0 |
| 20260905093515 | 74 | 0 | 3.0 | 8.0 | 0.00 | 0.00 | 0.00 | 65 | 1009.9 |
| 20260905093016 | 74 | 315 | 2.0 | 4.0 | 0.00 | 0.00 | 0.00 | 65 | 1009.9 |
| 20260905092516 | 74 | 338 | 2.0 | 5.0 | 0.00 | 0.00 | 0.00 | 64 | 1009.9 |
| 20260905092015 | 74 | 338 | 2.0 | 4.0 | 0.00 | 0.00 | 0.00 | 64 | 1009.8 |
| 20260905091517 | 74 | 338 | 2.0 | 7.0 | 0.00 | 0.00 | 0.00 | 63 | 1009.8 |
| 20260905091016 | 74 | 338 | 2.0 | 5.0 | 0.00 | 0.00 | 0.00 | 63 | 1009.9 |
| 20260905090515 | 74 | 0 | 2.0 | 4.0 | 0.00 | 0.00 | 0.00 | 63 | 1009.8 |
| 20260905090015 | 74 | 315 | 3.0 | 8.0 | 0.00 | 0.00 | 0.00 | 63 | 1009.8 |
| 20260905085515 | 74 | 0 | 3.0 | 8.0 | 0.00 | 0.00 | 0.00 | 63 | 1009.8 |
| 20260905085015 | 75 | 338 | 3.0 | 6.0 | 0.00 | 0.00 | 0.00 | 62 | 1009.8 |
| 20260905084535 | 75 | 338 | 2.0 | 6.0 | 0.00 | 0.00 | 0.00 | 62 | 1009.8 |
| 20260905084015 | 75 | 338 | 3.0 | 8.0 | 0.00 | 0.00 | 0.00 | 62 | 1009.8 |
| 20260905083515 | 75 | 0 | 3.0 | 9.0 | 0.00 | 0.00 | 0.00 | 62 | 1009.9 |
| 20260905083015 | 75 | 338 | 2.0 | 4.0 | 0.00 | 0.00 | 0.00 | 61 | 1009.9 |
| 20260905082515 | 75 | 338 | 2.0 | 7.0 | 0.00 | 0.00 | 0.00 | 61 | 1009.8 |
| 20260905082016 | 75 | 338 | 3.0 | 7.0 | 0.00 | 0.00 | 0.00 | 60 | 1009.8 |
| 20260905081515 | 75 | 338 | 3.0 | 7.0 | 0.00 | 0.00 | 0.00 | 60 | 1009.8 |
| 20260905081015 | 75 | 338 | 4.0 | 8.0 | 0.00 | 0.00 | 0.00 | 60 | 1009.8 |
| 20260905080517 | 75 | 45 | 3.0 | 10.0 | 0.00 | 0.00 | 0.00 | 59 | 1009.8 |
| 20260905080017 | 75 | 338 | 2.0 | 5.0 | 0.00 | 0.00 | 0.00 | 59 | 1009.9 |
| 20260905075517 | 76 | 315 | 3.0 | 8.0 | 0.00 | 0.00 | 0.00 | 59 | 1009.8 |
| 20260905075017 | 76 | 338 | 3.0 | 9.0 | 0.00 | 0.00 | 0.00 | 59 | 1009.9 |
| 20260905074517 | 76 | 0 | 3.0 | 8.0 | 0.00 | 0.00 | 0.00 | 59 | 1009.9 |
| 20260905074019 | 76 | 338 | 2.0 | 5.0 | 0.00 | 0.00 | 0.00 | 59 | 1009.9 |
| 20260905073517 | 76 | 315 | 2.0 | 9.0 | 0.00 | 0.00 | 0.00 | 59 | 1009.9 |
| 20260905073017 | 76 | 315 | 2.0 | 5.0 | 0.00 | 0.00 | 0.00 | 59 | 1009.8 |
| 20260905072517 | 76 | 338 | 3.0 | 6.0 | 0.00 | 0.00 | 0.00 | 59 | 1009.8 |
| 20260905072017 | 76 | 338 | 3.0 | 8.0 | 0.00 | 0.00 | 0.00 | 59 | 1009.9 |
| 20260905071537 | 76 | 0 | 3.0 | 9.0 | 0.00 | 0.00 | 0.00 | 59 | 1009.9 |
| 20260905071018 | 76 | 0 | 2.0 | 4.0 | 0.00 | 0.00 | 0.00 | 59 | 1010.0 |
| 20260905070518 | 76 | 338 | 2.0 | 6.0 | 0.00 | 0.00 | 0.00 | 59 | 1010.0 |
| 20260905070018 | 76 | 23 | 3.0 | 9.0 | 0.00 | 0.00 | 0.00 | 59 | 1010.0 |
| 20260905065517 | 76 | 338 | 2.0 | 6.0 | 0.00 | 0.00 | 0.00 | 59 | 1009.9 |
| 20260905065018 | 76 | 45 | 3.0 | 8.0 | 0.00 | 0.00 | 0.00 | 59 | 1009.9 |
| 20260905064518 | 76 | 0 | 2.0 | 7.0 | 0.00 | 0.00 | 0.00 | 60 | 1009.8 |
| 20260905064018 | 76 | 0 | 2.0 | 6.0 | 0.00 | 0.00 | 0.00 | 60 | 1009.9 |
| 20260905063517 | 76 | 45 | 3.0 | 5.0 | 0.00 | 0.00 | 0.00 | 61 | 1010.0 |
| 20260905063017 | 76 | 0 | 2.0 | 8.0 | 0.00 | 0.00 | 0.00 | 62 | 1010.0 |
| 20260905062517 | 76 | 68 | 1.0 | 4.0 | 0.00 | 0.00 | 0.00 | 63 | 1010.1 |
| 20260905062017 | 77 | 338 | 1.0 | 4.0 | 0.00 | 0.00 | 0.00 | 63 | 1010.1 |
| 20260905061517 | 77 | 338 | 1.0 | 3.0 | 0.00 | 0.00 | 0.00 | 63 | 1010.1 |
| 20260905061017 | 77 | 338 | 1.0 | 2.0 | 0.00 | 0.00 | 0.00 | 63 | 1010.2 |
| 20260905060519 | 77 | 338 | 1.0 | 3.0 | 0.00 | 0.00 | 0.00 | 63 | 1010.2 |
| 20260905060017 | 77 | 338 | 2.0 | 6.0 | 0.00 | 0.00 | 0.00 | 62 | 1010.3 |
| 20260905055517 | 77 | 0 | 1.0 | 3.0 | 0.00 | 0.00 | 0.00 | 62 | 1010.4 |
| 20260905055017 | 77 | 0 | 2.0 | 6.0 | 0.00 | 0.00 | 0.00 | 61 | 1010.3 |
| 20260905054518 | 77 | 0 | 1.0 | 5.0 | 0.00 | 0.00 | 0.00 | 61 | 1010.5 |
| 20260905054038 | 77 | 293 | 1.0 | 5.0 | 0.00 | 0.00 | 0.00 | 61 | 1010.6 |
| 20260905053537 | 77 | 0 | 2.0 | 8.0 | 0.00 | 0.00 | 0.00 | 61 | 1010.6 |
| 20260905053017 | 77 | 338 | 1.0 | 3.0 | 0.00 | 0.00 | 0.00 | 61 | 1010.6 |
| 20260905052518 | 77 | 338 | 2.0 | 7.0 | 0.00 | 0.00 | 0.00 | 61 | 1010.7 |
| 20260905052017 | 77 | 338 | 3.0 | 8.0 | 0.00 | 0.00 | 0.00 | 61 | 1010.7 |
| 20260905051517 | 77 | 338 | 2.0 | 9.0 | 0.00 | 0.00 | 0.00 | 61 | 1010.9 |
| 20260905051018 | 77 | 0 | 3.0 | 10.0 | 0.00 | 0.00 | 0.00 | 61 | 1010.8 |
| 20260905050517 | 77 | 0 | 3.0 | 9.0 | 0.00 | 0.00 | 0.00 | 61 | 1010.9 |
| 20260905050017 | 77 | 0 | 2.0 | 5.0 | 0.00 | 0.00 | 0.00 | 61 | 1010.8 |
| 20260905045517 | 77 | 0 | 3.0 | 9.0 | 0.00 | 0.00 | 0.00 | 61 | 1010.8 |
| 20260905045018 | 77 | 45 | 2.0 | 9.0 | 0.00 | 0.00 | 0.00 | 61 | 1010.8 |
| 20260905044537 | 77 | 0 | 2.0 | 8.0 | 0.00 | 0.00 | 0.00 | 61 | 1010.9 |
| 20260905044017 | 78 | 0 | 3.0 | 8.0 | 0.00 | 0.00 | 0.00 | 61 | 1010.9 |
| 20260905043517 | 78 | 23 | 3.0 | 8.0 | 0.00 | 0.00 | 0.00 | 61 | 1010.9 |
| 20260905043017 | 78 | 45 | 2.0 | 6.0 | 0.00 | 0.00 | 0.00 | 62 | 1010.9 |
| 20260905042517 | 78 | 338 | 3.0 | 10.0 | 0.00 | 0.00 | 0.00 | 63 | 1010.9 |
| 20260905042017 | 78 | 338 | 2.0 | 8.0 | 0.00 | 0.00 | 0.00 | 63 | 1010.9 |
| 20260905041517 | 78 | 293 | 1.0 | 3.0 | 0.00 | 0.00 | 0.00 | 63 | 1011.0 |
| 20260905041017 | 78 | 23 | 1.0 | 3.0 | 0.00 | 0.00 | 0.00 | 63 | 1010.9 |
| 20260905040517 | 78 | 23 | 1.0 | 5.0 | 0.00 | 0.00 | 0.00 | 63 | 1010.9 |
| 20260905040017 | 78 | 0 | 1.0 | 3.0 | 0.00 | 0.00 | 0.00 | 63 | 1010.9 |
| 20260905035516 | 78 | 0 | 2.0 | 4.0 | 0.00 | 0.00 | 0.00 | 62 | 1011.0 |
| 20260905035016 | 78 | 0 | 2.0 | 4.0 | 0.00 | 0.00 | 0.00 | 62 | 1010.9 |
| 20260905034535 | 78 | 315 | 2.0 | 5.0 | 0.00 | 0.00 | 0.00 | 62 | 1010.9 |
| 20260905034015 | 78 | 315 | 3.0 | 9.0 | 0.00 | 0.00 | 0.00 | 62 | 1010.8 |
| 20260905033516 | 78 | 23 | 3.0 | 9.0 | 0.00 | 0.00 | 0.00 | 61 | 1010.8 |
| 20260905033037 | 78 | 23 | 1.0 | 4.0 | 0.00 | 0.00 | 0.00 | 62 | 1010.7 |
| 20260905032515 | 78 | 293 | 2.0 | 6.0 | 0.00 | 0.00 | 0.00 | 62 | 1010.8 |
| 20260905032015 | 79 | 0 | 3.0 | 9.0 | 0.00 | 0.00 | 0.00 | 62 | 1010.7 |
| 20260905031515 | 79 | 338 | 2.0 | 5.0 | 0.00 | 0.00 | 0.00 | 62 | 1010.7 |
| 20260905031015 | 79 | 338 | 3.0 | 8.0 | 0.00 | 0.00 | 0.00 | 61 | 1010.8 |
| 20260905030558 | 79 | 338 | 3.0 | 9.0 | 0.00 | 0.00 | 0.00 | 61 | 1010.8 |
| 20260905030017 | 79 | 315 | 3.0 | 7.0 | 0.00 | 0.00 | 0.00 | 60 | 1010.9 |
| 20260905025515 | 79 | 0 | 2.0 | 7.0 | 0.00 | 0.00 | 0.00 | 60 | 1010.8 |
| 20260905025015 | 79 | 0 | 3.0 | 8.0 | 0.00 | 0.00 | 0.00 | 60 | 1010.8 |
| 20260905024515 | 79 | 0 | 2.0 | 6.0 | 0.00 | 0.00 | 0.00 | 60 | 1010.8 |
| 20260905024015 | 79 | 0 | 2.0 | 7.0 | 0.00 | 0.00 | 0.00 | 60 | 1010.7 |
| 20260905023515 | 79 | 293 | 3.0 | 8.0 | 0.00 | 0.00 | 0.00 | 60 | 1010.7 |
| 20260905023015 | 79 | 338 | 4.0 | 8.0 | 0.00 | 0.00 | 0.00 | 60 | 1010.7 |
| 20260905022515 | 79 | 315 | 4.0 | 10.0 | 0.00 | 0.00 | 0.00 | 60 | 1010.8 |
| 20260905022017 | 80 | 315 | 3.0 | 8.0 | 0.00 | 0.00 | 0.00 | 60 | 1010.9 |
| 20260905021518 | 80 | 315 | 3.0 | 9.0 | 0.00 | 0.00 | 0.00 | 60 | 1010.9 |
| 20260905021039 | 80 | 293 | 2.0 | 7.0 | 0.00 | 0.00 | 0.00 | 60 | 1010.9 |
| 20260905020517 | 80 | 338 | 3.0 | 7.0 | 0.00 | 0.00 | 0.00 | 60 | 1010.8 |
| 20260905020017 | 80 | 315 | 3.0 | 7.0 | 0.00 | 0.00 | 0.00 | 60 | 1010.9 |
| 20260905015516 | 80 | 315 | 3.0 | 7.0 | 0.00 | 0.00 | 0.00 | 60 | 1010.9 |
| 20260905015018 | 80 | 315 | 2.0 | 6.0 | 0.00 | 0.00 | 0.00 | 60 | 1010.9 |
| 20260905014537 | 80 | 338 | 2.0 | 6.0 | 0.00 | 0.00 | 0.00 | 59 | 1010.9 |
| 20260905014018 | 80 | 315 | 2.0 | 6.0 | 0.00 | 0.00 | 0.00 | 59 | 1010.8 |
| 20260905013518 | 80 | 315 | 3.0 | 5.0 | 0.00 | 0.00 | 0.00 | 59 | 1010.8 |
| 20260905013017 | 81 | 315 | 2.0 | 5.0 | 0.00 | 0.00 | 0.00 | 60 | 1011.0 |
| 20260905012540 | 81 | 315 | 3.0 | 7.0 | 0.00 | 0.00 | 0.00 | 59 | 1011.0 |
| 20260905012039 | 81 | 315 | 3.0 | 8.0 | 0.00 | 0.00 | 0.00 | 58 | 1010.9 |
| 20260905011517 | 81 | 315 | 2.0 | 4.0 | 0.00 | 0.00 | 0.00 | 58 | 1010.9 |
| 20260905011037 | 81 | 0 | 2.0 | 6.0 | 0.00 | 0.00 | 0.00 | 57 | 1010.8 |
| 20260905010538 | 81 | 338 | 2.0 | 4.0 | 0.00 | 0.00 | 0.00 | 57 | 1010.8 |
| 20260905010017 | 81 | 338 | 1.0 | 4.0 | 0.00 | 0.00 | 0.00 | 57 | 1010.7 |
| 20260905005537 | 81 | 338 | 1.0 | 5.0 | 0.00 | 0.00 | 0.00 | 57 | 1010.6 |
| 20260905005015 | 81 | 315 | 2.0 | 4.0 | 0.00 | 0.00 | 0.00 | 57 | 1010.7 |
| 20260905004517 | 82 | 338 | 2.0 | 6.0 | 0.00 | 0.00 | 0.00 | 56 | 1010.7 |
| 20260905004017 | 82 | 338 | 2.0 | 5.0 | 0.00 | 0.00 | 0.00 | 56 | 1010.6 |
| 20260905003518 | 82 | 315 | 3.0 | 8.0 | 0.00 | 0.00 | 0.00 | 56 | 1010.6 |
| 20260905003017 | 82 | 315 | 2.0 | 5.0 | 0.00 | 0.00 | 0.00 | 56 | 1010.5 |
| 20260905002517 | 82 | 315 | 2.0 | 4.0 | 0.00 | 0.00 | 0.00 | 56 | 1010.5 |
| 20260905002017 | 82 | 293 | 2.0 | 5.0 | 0.00 | 0.00 | 0.00 | 56 | 1010.6 |
| 20260905001518 | 82 | 293 | 2.0 | 5.0 | 0.00 | 0.00 | 0.00 | 56 | 1010.6 |
| 20260905001017 | 82 | 293 | 2.0 | 6.0 | 0.00 | 0.00 | 0.00 | 55 | 1010.6 |
| 20260905000517 | 82 | 0 | 2.0 | 6.0 | 0.00 | 0.00 | 0.00 | 55 | 1010.6 |
| 20260905000018 | 82 | 338 | 2.0 | 5.0 | 0.00 | 0.00 | 0.00 | 55 | 1010.6 |
| 20260904235517 | 82 | 315 | 3.0 | 5.0 | 0.00 | 0.00 | 0.00 | 55 | 1010.4 |
| 20260904235017 | 82 | 315 | 3.0 | 8.0 | 0.00 | 0.00 | 0.00 | 55 | 1010.4 |
| 20260904234517 | 82 | 0 | 3.0 | 8.0 | 0.00 | 0.00 | 0.00 | 55 | 1010.4 |
| 20260904234017 | 83 | 315 | 3.0 | 8.0 | 0.00 | 0.00 | 0.00 | 55 | 1010.3 |
| 20260904233540 | 83 | 315 | 4.0 | 12.0 | 0.00 | 0.00 | 0.00 | 54 | 1010.5 |
| 20260904233038 | 83 | 315 | 4.0 | 9.0 | 0.00 | 0.00 | 0.00 | 54 | 1010.4 |
| 20260904232539 | 83 | 315 | 5.0 | 10.0 | 0.00 | 0.00 | 0.00 | 54 | 1010.4 |
| 20260904232017 | 83 | 315 | 3.0 | 6.0 | 0.00 | 0.00 | 0.00 | 54 | 1010.4 |
| 20260904231517 | 84 | 315 | 3.0 | 7.0 | 0.00 | 0.00 | 0.00 | 54 | 1010.4 |
| 20260904231017 | 84 | 315 | 2.0 | 6.0 | 0.00 | 0.00 | 0.00 | 54 | 1010.4 |
| 20260904230517 | 84 | 0 | 3.0 | 8.0 | 0.00 | 0.00 | 0.00 | 53 | 1010.3 |
| 20260904230017 | 84 | 293 | 3.0 | 9.0 | 0.00 | 0.00 | 0.00 | 53 | 1010.4 |
| 20260904225517 | 84 | 0 | 3.0 | 9.0 | 0.00 | 0.00 | 0.00 | 53 | 1010.4 |
| 20260904225018 | 85 | 293 | 2.0 | 5.0 | 0.00 | 0.00 | 0.00 | 51 | 1010.4 |
| 20260904224517 | 85 | 338 | 2.0 | 5.0 | 0.00 | 0.00 | 0.00 | 52 | 1010.5 |
| 20260904224017 | 85 | 315 | 3.0 | 7.0 | 0.00 | 0.00 | 0.00 | 51 | 1010.5 |
| 20260904223537 | 85 | 338 | 4.0 | 10.0 | 0.00 | 0.00 | 0.00 | 51 | 1010.5 |
| 20260904223017 | 85 | 315 | 4.0 | 8.0 | 0.00 | 0.00 | 0.00 | 51 | 1010.5 |
| 20260904222517 | 86 | 315 | 4.0 | 8.0 | 0.00 | 0.00 | 0.00 | 51 | 1010.4 |
| 20260904222037 | 86 | 315 | 4.0 | 10.0 | 0.00 | 0.00 | 0.00 | 50 | 1010.4 |
| 20260904221518 | 86 | 293 | 4.0 | 9.0 | 0.00 | 0.00 | 0.00 | 49 | 1010.4 |
| 20260904221018 | 86 | 315 | 4.0 | 10.0 | 0.00 | 0.00 | 0.00 | 49 | 1010.4 |
| 20260904220537 | 86 | 338 | 4.0 | 10.0 | 0.00 | 0.00 | 0.00 | 48 | 1010.4 |
| 20260904220017 | 87 | 0 | 4.0 | 10.0 | 0.00 | 0.00 | 0.00 | 48 | 1010.4 |
| 20260904215518 | 87 | 338 | 4.0 | 10.0 | 0.00 | 0.00 | 0.00 | 47 | 1010.3 |
| 20260904215017 | 87 | 315 | 3.0 | 9.0 | 0.00 | 0.00 | 0.00 | 47 | 1010.3 |
| 20260904214517 | 87 | 338 | 4.0 | 8.0 | 0.00 | 0.00 | 0.00 | 48 | 1010.3 |
| 20260904214017 | 87 | 315 | 4.0 | 10.0 | 0.00 | 0.00 | 0.00 | 47 | 1010.2 |
| 20260904213517 | 87 | 315 | 5.0 | 11.0 | 0.00 | 0.00 | 0.00 | 47 | 1010.2 |
| 20260904213037 | 88 | 315 | 4.0 | 9.0 | 0.00 | 0.00 | 0.00 | 46 | 1010.1 |
| 20260904212517 | 87 | 315 | 4.0 | 8.0 | 0.00 | 0.00 | 0.00 | 46 | 1010.0 |
| 20260904212017 | 88 | 248 | 5.0 | 16.0 | 0.00 | 0.00 | 0.00 | 46 | 1010.0 |
| 20260904211517 | 87 | 315 | 3.0 | 7.0 | 0.00 | 0.00 | 0.00 | 47 | 1010.0 |
| 20260904211017 | 87 | 315 | 6.0 | 12.0 | 0.00 | 0.00 | 0.00 | 46 | 1010.1 |
| 20260904210517 | 88 | 315 | 5.0 | 10.0 | 0.00 | 0.00 | 0.00 | 47 | 1010.1 |
| 20260904210017 | 88 | 338 | 5.0 | 11.0 | 0.00 | 0.00 | 0.00 | 47 | 1010.2 |
| 20260904205517 | 88 | 315 | 3.0 | 7.0 | 0.00 | 0.00 | 0.00 | 48 | 1010.2 |
| 20260904205018 | 88 | 315 | 5.0 | 13.0 | 0.00 | 0.00 | 0.00 | 47 | 1010.2 |
| 20260904204517 | 88 | 315 | 6.0 | 12.0 | 0.00 | 0.00 | 0.00 | 47 | 1010.2 |
| 20260904204017 | 88 | 248 | 6.0 | 14.0 | 0.00 | 0.00 | 0.00 | 47 | 1010.4 |
| 20260904203537 | 88 | 338 | 3.0 | 6.0 | 0.00 | 0.00 | 0.00 | 47 | 1010.4 |
| 20260904203037 | 88 | 338 | 4.0 | 10.0 | 0.00 | 0.00 | 0.00 | 47 | 1010.4 |
| 20260904202518 | 88 | 315 | 4.0 | 12.0 | 0.00 | 0.00 | 0.00 | 47 | 1010.4 |
| 20260904202017 | 88 | 293 | 3.0 | 8.0 | 0.00 | 0.00 | 0.00 | 47 | 1010.4 |
| 20260904201517 | 88 | 338 | 6.0 | 12.0 | 0.00 | 0.00 | 0.00 | 47 | 1010.3 |
| 20260904201017 | 88 | 315 | 5.0 | 12.0 | 0.00 | 0.00 | 0.00 | 48 | 1010.4 |
| 20260904200518 | 88 | 315 | 5.0 | 11.0 | 0.00 | 0.00 | 0.00 | 47 | 1010.6 |
| 20260904200036 | 88 | 315 | 6.0 | 13.0 | 0.00 | 0.00 | 0.00 | 47 | 1010.7 |
| 20260904195517 | 88 | 315 | 4.0 | 13.0 | 0.00 | 0.00 | 0.00 | 47 | 1010.8 |
| 20260904195017 | 88 | 270 | 3.0 | 8.0 | 0.00 | 0.00 | 0.00 | 47 | 1010.8 |
| 20260904194557 | 88 | 315 | 4.0 | 10.0 | 0.00 | 0.00 | 0.00 | 47 | 1010.9 |
| 20260904194018 | 88 | 315 | 5.0 | 11.0 | 0.00 | 0.00 | 0.00 | 47 | 1010.9 |
| 20260904193517 | 88 | 315 | 5.0 | 11.0 | 0.00 | 0.00 | 0.00 | 48 | 1010.9 |
| 20260904193017 | 88 | 338 | 5.0 | 10.0 | 0.00 | 0.00 | 0.00 | 47 | 1010.9 |
| 20260904192517 | 88 | 293 | 4.0 | 11.0 | 0.00 | 0.00 | 0.00 | 47 | 1011.0 |
| 20260904192017 | 88 | 315 | 6.0 | 13.0 | 0.00 | 0.00 | 0.00 | 47 | 1011.0 |
| 20260904191640 | 87 | 0 | 5.0 | 11.0 | 0.00 | 0.00 | 0.00 | 47 | 1011.0 |
| 20260904191017 | 88 | 0 | 6.0 | 13.0 | 0.00 | 0.00 | 0.00 | 46 | 1011.1 |
| 20260904190517 | 88 | 338 | 4.0 | 11.0 | 0.00 | 0.00 | 0.00 | 47 | 1011.1 |
| 20260904190019 | 88 | 315 | 5.0 | 13.0 | 0.00 | 0.00 | 0.00 | 46 | 1011.2 |
| 20260904185518 | 88 | 293 | 5.0 | 11.0 | 0.00 | 0.00 | 0.00 | 47 | 1011.3 |
| 20260904185017 | 88 | 315 | 7.0 | 12.0 | 0.00 | 0.00 | 0.00 | 46 | 1011.2 |
| 20260904184517 | 88 | 315 | 4.0 | 12.0 | 0.00 | 0.00 | 0.00 | 47 | 1011.2 |
| 20260904184016 | 88 | 0 | 5.0 | 9.0 | 0.00 | 0.00 | 0.00 | 47 | 1011.2 |
| 20260904183517 | 88 | 315 | 5.0 | 12.0 | 0.00 | 0.00 | 0.00 | 49 | 1011.2 |
| 20260904183018 | 88 | 315 | 6.0 | 12.0 | 0.00 | 0.00 | 0.00 | 49 | 1011.3 |
| 20260904182517 | 88 | 315 | 6.0 | 13.0 | 0.00 | 0.00 | 0.00 | 47 | 1011.3 |
| 20260904182016 | 88 | 315 | 5.0 | 10.0 | 0.00 | 0.00 | 0.00 | 48 | 1011.2 |
| 20260904181538 | 88 | 315 | 6.0 | 11.0 | 0.00 | 0.00 | 0.00 | 46 | 1011.2 |
| 20260904181016 | 88 | 315 | 5.0 | 11.0 | 0.00 | 0.00 | 0.00 | 46 | 1011.3 |
| 20260904180536 | 88 | 293 | 6.0 | 14.0 | 0.00 | 0.00 | 0.00 | 47 | 1011.3 |
| 20260904180016 | 88 | 293 | 4.0 | 11.0 | 0.00 | 0.00 | 0.00 | 47 | 1011.2 |
| 20260904175538 | 87 | 0 | 7.0 | 14.0 | 0.00 | 0.00 | 0.00 | 47 | 1011.3 |
| 20260904175016 | 88 | 315 | 6.0 | 14.0 | 0.00 | 0.00 | 0.00 | 47 | 1011.3 |
| 20260904174516 | 87 | 315 | 7.0 | 15.0 | 0.00 | 0.00 | 0.00 | 47 | 1011.3 |
| 20260904174018 | 87 | 315 | 6.0 | 11.0 | 0.00 | 0.00 | 0.00 | 49 | 1011.3 |
| 20260904173537 | 87 | 315 | 6.0 | 11.0 | 0.00 | 0.00 | 0.00 | 50 | 1011.3 |
| 20260904173016 | 87 | 315 | 6.0 | 13.0 | 0.00 | 0.00 | 0.00 | 50 | 1011.2 |
| 20260904172516 | 87 | 0 | 4.0 | 13.0 | 0.00 | 0.00 | 0.00 | 50 | 1011.3 |
| 20260904172016 | 86 | 315 | 7.0 | 14.0 | 0.00 | 0.00 | 0.00 | 50 | 1011.2 |
| 20260904171537 | 87 | 315 | 6.0 | 14.0 | 0.00 | 0.00 | 0.00 | 50 | 1011.2 |
| 20260904171016 | 86 | 315 | 7.0 | 14.0 | 0.00 | 0.00 | 0.00 | 50 | 1011.3 |
| 20260904170516 | 86 | 338 | 6.0 | 14.0 | 0.00 | 0.00 | 0.00 | 51 | 1011.4 |
| 20260904170017 | 86 | 338 | 6.0 | 12.0 | 0.00 | 0.00 | 0.00 | 52 | 1011.3 |
| 20260904165516 | 87 | 338 | 5.0 | 13.0 | 0.00 | 0.00 | 0.00 | 51 | 1011.5 |
| 20260904165017 | 87 | 0 | 4.0 | 11.0 | 0.00 | 0.00 | 0.00 | 52 | 1011.3 |
| 20260904164517 | 87 | 315 | 6.0 | 11.0 | 0.00 | 0.00 | 0.00 | 52 | 1011.3 |
| 20260904164018 | 87 | 315 | 6.0 | 11.0 | 0.00 | 0.00 | 0.00 | 51 | 1011.3 |
| 20260904163516 | 87 | 0 | 5.0 | 11.0 | 0.00 | 0.00 | 0.00 | 52 | 1011.4 |
| 20260904163016 | 87 | 315 | 5.0 | 13.0 | 0.00 | 0.00 | 0.00 | 51 | 1011.3 |
| 20260904162517 | 87 | 315 | 3.0 | 8.0 | 0.00 | 0.00 | 0.00 | 52 | 1011.4 |
| 20260904162016 | 87 | 338 | 4.0 | 9.0 | 0.00 | 0.00 | 0.00 | 51 | 1011.4 |
| 20260904161516 | 87 | 0 | 5.0 | 11.0 | 0.00 | 0.00 | 0.00 | 52 | 1011.4 |
| 20260904161016 | 87 | 0 | 5.0 | 10.0 | 0.00 | 0.00 | 0.00 | 52 | 1011.3 |
| 20260904160516 | 87 | 315 | 5.0 | 11.0 | 0.00 | 0.00 | 0.00 | 52 | 1011.4 |
| 20260904160016 | 86 | 338 | 5.0 | 12.0 | 0.00 | 0.00 | 0.00 | 52 | 1011.4 |
| 20260904155516 | 86 | 315 | 6.0 | 11.0 | 0.00 | 0.00 | 0.00 | 53 | 1011.5 |
| 20260904155016 | 86 | 338 | 5.0 | 9.0 | 0.00 | 0.00 | 0.00 | 53 | 1011.5 |
| 20260904154516 | 86 | 338 | 5.0 | 12.0 | 0.00 | 0.00 | 0.00 | 52 | 1011.6 |
| 20260904154016 | 86 | 315 | 5.0 | 11.0 | 0.00 | 0.00 | 0.00 | 53 | 1011.7 |
| 20260904153536 | 86 | 315 | 7.0 | 15.0 | 0.00 | 0.00 | 0.00 | 53 | 1011.8 |
| 20260904153058 | 86 | 315 | 6.0 | 15.0 | 0.00 | 0.00 | 0.00 | 53 | 1011.7 |
| 20260904152538 | 86 | 315 | 6.0 | 13.0 | 0.00 | 0.00 | 0.00 | 54 | 1011.8 |
| 20260904152016 | 86 | 315 | 4.0 | 11.0 | 0.00 | 0.00 | 0.00 | 55 | 1011.8 |
| 20260904151516 | 86 | 315 | 5.0 | 12.0 | 0.00 | 0.00 | 0.00 | 55 | 1011.9 |
| 20260904151016 | 86 | 338 | 4.0 | 11.0 | 0.00 | 0.00 | 0.00 | 55 | 1011.9 |
| 20260904150517 | 86 | 315 | 3.0 | 7.0 | 0.00 | 0.00 | 0.00 | 58 | 1011.8 |
| 20260904150017 | 86 | 315 | 4.0 | 10.0 | 0.00 | 0.00 | 0.00 | 58 | 1011.9 |
| 20260904145516 | 86 | 270 | 2.0 | 6.0 | 0.00 | 0.00 | 0.00 | 59 | 1011.8 |
| 20260904145017 | 85 | 315 | 5.0 | 10.0 | 0.00 | 0.00 | 0.00 | 59 | 1011.8 |
| 20260904144517 | 85 | 315 | 4.0 | 11.0 | 0.00 | 0.00 | 0.00 | 60 | 1011.9 |
| 20260904144017 | 85 | 0 | 4.0 | 8.0 | 0.00 | 0.00 | 0.00 | 61 | 1011.8 |
| 20260904143517 | 85 | 23 | 2.0 | 7.0 | 0.00 | 0.00 | 0.00 | 62 | 1011.9 |
| 20260904143016 | 85 | 338 | 2.0 | 7.0 | 0.00 | 0.00 | 0.00 | 62 | 1011.8 |
| 20260904142516 | 84 | 338 | 3.0 | 9.0 | 0.00 | 0.00 | 0.00 | 62 | 1011.8 |
| 20260904142016 | 84 | 0 | 4.0 | 11.0 | 0.00 | 0.00 | 0.00 | 63 | 1011.8 |
| 20260904141517 | 83 | 0 | 4.0 | 10.0 | 0.00 | 0.00 | 0.00 | 64 | 1011.6 |
| 20260904141016 | 83 | 0 | 3.0 | 8.0 | 0.00 | 0.00 | 0.00 | 65 | 1011.6 |
| 20260904140516 | 83 | 338 | 4.0 | 9.0 | 0.00 | 0.00 | 0.00 | 66 | 1011.7 |
| 20260904140016 | 83 | 293 | 5.0 | 10.0 | 0.00 | 0.00 | 0.00 | 66 | 1011.8 |
| 20260904135637 | 83 | 315 | 3.0 | 10.0 | 0.00 | 0.00 | 0.00 | 66 | 1011.7 |
| 20260904135056 | 82 | 338 | 3.0 | 8.0 | 0.00 | 0.00 | 0.00 | 67 | 1011.6 |
| 20260904134516 | 82 | 338 | 4.0 | 9.0 | 0.00 | 0.00 | 0.00 | 68 | 1011.5 |
| 20260904134016 | 82 | 0 | 5.0 | 12.0 | 0.00 | 0.00 | 0.00 | 69 | 1011.4 |
| 20260904133516 | 82 | 315 | 5.0 | 11.0 | 0.00 | 0.00 | 0.00 | 69 | 1011.5 |
| 20260904133016 | 81 | 315 | 6.0 | 11.0 | 0.00 | 0.00 | 0.00 | 70 | 1011.5 |
| 20260904132516 | 81 | 315 | 4.0 | 9.0 | 0.00 | 0.00 | 0.00 | 71 | 1011.4 |
| 20260904132017 | 81 | 315 | 4.0 | 11.0 | 0.00 | 0.00 | 0.00 | 73 | 1011.5 |
| 20260904131516 | 81 | 338 | 4.0 | 8.0 | 0.00 | 0.00 | 0.00 | 74 | 1011.5 |
| 20260904131037 | 80 | 293 | 4.0 | 9.0 | 0.00 | 0.00 | 0.00 | 75 | 1011.5 |
| 20260904130516 | 80 | 293 | 6.0 | 12.0 | 0.00 | 0.00 | 0.00 | 76 | 1011.5 |
| 20260904130016 | 80 | 293 | 4.0 | 10.0 | 0.00 | 0.00 | 0.00 | 76 | 1011.6 |
| 20260904125557 | 80 | 315 | 5.0 | 11.0 | 0.00 | 0.00 | 0.00 | 77 | 1011.5 |